Weather History for KSNT - July, 2013

Change the Weather History Date:

Friday, July 19, 2013

  Actual Average Record
Temperature  
Mean Temperature 61 °F 58 °F  
Max Temperature 87 °F 79 °F 90 °F (2003)
Min Temperature 34 °F 38 °F 24 °F (1928)
Degree Days  
Heating Degree Days 4 7  
Month to date heating degree days 80 166  
Since 1 June heating degree days 449 620  
Since 1 July heating degree days 80 166  
Cooling Degree Days 0 0  
Month to date cooling degree days 16 0  
Year to date cooling degree days 19 0  
Since 1 June cooling degree days 19 0  
Growing Degree Days 11 (Base 50)    
Moisture  
Dew Point 30 °F    
Average Humidity 47    
Maximum Humidity 82    
Minimum Humidity 11    
Precipitation  
Precipitation 0.00 in 0.02 in 0.85 in (1973)
Month to date precipitation 0.28 0.44  
Year to date precipitation 6.21 10.36  
Sea Level Pressure  
Sea Level Pressure 29.99 in    
Wind  
Wind Speed 3 mph (NW)    
Max Wind Speed 12 mph    
Max Gust Speed 17 mph    
T = Trace of Precipitation, MM = Missing Value Source: NWS Daily Summary

Daily Weather History Graph

Daily Weather History Graph

Search for Another Location

Airport or City:

Trip Planner

Search our weather history database for the weather conditions in past years. The results will help you decide how hot, cold, wet, or windy it might be!

Date:

Astronomy

Jul. 19, 2013 Rise Set
Actual Time 6:14 AM MDT 9:17 PM MDT
Civil Twilight 5:39 AM MDT 9:51 PM MDT
Nautical Twilight 4:55 AM MDT 10:36 PM MDT
Astronomical Twilight 4:01 AM MDT 11:28 PM MDT
Moon 6:23 PM MDT (7/19) 2:59 AM MDT (7/19)
Length of Visible Light 16h 12m
Length of Day
15h 03m
Waxing Gibbous, 87% of the Moon is Illuminated
Jul 19
Waxing Gibbous
Jul 22
Full
Jul 29
Last Quarter
Aug 6
New
Aug 14
First Quarter

Hourly Weather History & Observations

Time (MDT) Temp. Windchill Dew Point Humidity Pressure Visibility Wind Dir Wind Speed Gust Speed Precip Events Conditions
12:51 AM 50.0 °F - 33.1 °F 52% 30.03 in - SE 3.5 mph - N/A   Unknown
1:51 AM 46.9 °F - 33.1 °F 59% 30.03 in - Calm Calm - N/A   Unknown
2:51 AM 44.1 °F - 33.1 °F 65% 30.05 in - Calm Calm - N/A   Unknown
3:51 AM 39.9 °F - 32.0 °F 73% 30.06 in - Calm Calm - N/A   Unknown
4:51 AM 37.9 °F - 30.9 °F 76% 30.06 in - Calm Calm - N/A   Unknown
5:51 AM 37.0 °F - 30.9 °F 79% 30.09 in - Calm Calm - N/A   Unknown
6:51 AM 36.0 °F 33.3 °F 30.9 °F 82% 30.10 in - SSE 3.5 mph - N/A   Unknown
7:51 AM 45.0 °F - 35.1 °F 68% 30.08 in - Calm Calm - N/A   Unknown
8:51 AM 54.0 °F - 36.0 °F 51% 30.06 in - Calm Calm - N/A   Unknown
9:51 AM 60.1 °F - 36.0 °F 41% 30.06 in - NNW 3.5 mph - N/A   Unknown
10:51 AM 69.1 °F - 37.9 °F 32% 30.04 in - Calm Calm - N/A   Unknown
11:51 AM 79.0 °F - 36.0 °F 21% 30.00 in - North 4.6 mph - N/A   Unknown
12:51 PM 82.9 °F - 27.0 °F 13% 29.96 in - NNE 8.1 mph - N/A   Unknown
1:51 PM 84.9 °F - 28.0 °F 13% 29.95 in - Variable 3.5 mph - N/A   Unknown
2:51 PM 84.9 °F - 24.1 °F 11% 29.94 in - WNW 9.2 mph 17.3 mph N/A   Unknown
3:51 PM 84.9 °F - 25.0 °F 11% 29.94 in - Calm Calm - N/A   Unknown
4:51 PM 84.9 °F - 26.1 °F 12% 29.94 in - NW 6.9 mph 16.1 mph N/A   Unknown
5:51 PM 86.0 °F - 28.0 °F 12% 29.92 in - Variable 3.5 mph - N/A   Unknown
6:51 PM 81.0 °F - 25.0 °F 13% 29.94 in - NW 5.8 mph - N/A   Unknown
7:51 PM 78.1 °F - 28.0 °F 16% 29.91 in - West 3.5 mph - N/A   Unknown
8:51 PM 71.1 °F - 33.1 °F 25% 29.91 in - Calm Calm - N/A   Unknown
9:51 PM 61.0 °F - 28.0 °F 29% 29.94 in - Calm Calm - N/A   Unknown
10:51 PM 55.9 °F - 27.0 °F 33% 29.94 in - Calm Calm - N/A   Unknown
11:51 PM 52.0 °F - 27.0 °F 38% 29.92 in - SSE 4.6 mph - N/A   Unknown